Beaufort, SC

3:49 AM EDT on August 20, 2017 (GMT -0400)
Beaufort

Weather History for KARW - May, 2013

Change the Weather History Date:

Thursday, May 2, 2013

  Actual Average (KNBC) Record (KNBC)
Temperature  
Mean Temperature 68 °F -  
Max Temperature 71 °F 81 °F 93 °F (1959)
Min Temperature 64 °F 60 °F 39 °F (1963)
Cooling Degree Days 2    
Growing Degree Days 18 (Base 50)    
Moisture  
Dew Point 64 °F    
Average Humidity 87    
Maximum Humidity 100    
Minimum Humidity 78    
Precipitation  
Precipitation 0.00 in - - ()
Sea Level Pressure  
Sea Level Pressure 30.11 in    
Wind  
Wind Speed 17 mph (NE)    
Max Wind Speed 24 mph    
Max Gust Speed 32 mph    
Visibility 7 miles    
Events Rain    
Averages and records for this station are not official NWS values.
T = Trace of Precipitation, MM = Missing Value Source: NWS Daily Summary

Daily Weather History Graph

Daily Weather History Graph

Search for Another Location

Airport or City:

Trip Planner

Search our weather history database for the weather conditions in past years. The results will help you decide how hot, cold, wet, or windy it might be!

Date:

Astronomy

May. 02, 2013 Rise Set
Actual Time 6:34 AM EDT 8:04 PM EDT
Civil Twilight 6:08 AM EDT 8:30 PM EDT
Nautical Twilight 5:37 AM EDT 9:02 PM EDT
Astronomical Twilight 5:04 AM EDT 9:35 PM EDT
Moon 1:55 AM EDT (5/2) 1:16 PM EDT (5/2)
Length of Visible Light 14h 22m
Length of Day
13h 29m
Waning Gibbous, 48% of the Moon is Illuminated
May 2
Waning Gibbous
May 9
New
May 18
First Quarter
May 25
Full
May 31
Last Quarter

Hourly Weather History & Observations

Time (EDT) Temp. Dew Point Humidity Pressure Visibility Wind Dir Wind Speed Gust Speed Precip Events Conditions
12:15 AM 66.2 °F 62.6 °F 88% 30.14 in 7.0 mi NE 17.3 mph 20.7 mph N/A   Overcast
12:35 AM 66.2 °F 62.6 °F 88% 30.13 in 7.0 mi NE 15.0 mph 23.0 mph N/A   Overcast
12:55 AM 66.2 °F 64.4 °F 94% 30.13 in 7.0 mi NE 16.1 mph - N/A   Overcast
1:15 AM 66.2 °F 64.4 °F 94% 30.12 in 7.0 mi NE 12.7 mph - N/A   Light Drizzle
1:35 AM 66.2 °F 64.4 °F 94% 30.12 in 7.0 mi NE 18.4 mph - N/A   Overcast
1:55 AM 66.2 °F 64.4 °F 94% 30.11 in 7.0 mi NE 18.4 mph - N/A   Overcast
2:15 AM 66.2 °F 64.4 °F 94% 30.11 in 7.0 mi NE 17.3 mph - N/A   Overcast
2:35 AM 66.2 °F 64.4 °F 94% 30.10 in 7.0 mi NE 19.6 mph - N/A   Overcast
2:55 AM 66.2 °F 64.4 °F 94% 30.10 in 7.0 mi NE 17.3 mph 21.9 mph N/A   Overcast
3:15 AM 66.2 °F 64.4 °F 94% 30.10 in 7.0 mi NE 18.4 mph - N/A   Overcast
3:35 AM 68.0 °F 64.4 °F 88% 30.10 in 7.0 mi NE 16.1 mph - N/A   Overcast
3:55 AM 66.2 °F 64.4 °F 94% 30.10 in 7.0 mi NE 17.3 mph - N/A   Overcast
4:15 AM 68.0 °F 64.4 °F 88% 30.09 in 7.0 mi NE 18.4 mph - N/A   Overcast
4:35 AM 66.2 °F 64.4 °F 94% 30.09 in 7.0 mi NE 16.1 mph 20.7 mph N/A   Mostly Cloudy
4:55 AM 66.2 °F 64.4 °F 94% 30.09 in 7.0 mi NE 15.0 mph - N/A   Mostly Cloudy
5:15 AM 66.2 °F 64.4 °F 94% 30.08 in 7.0 mi NE 17.3 mph - N/A   Scattered Clouds
5:35 AM 66.2 °F 64.4 °F 94% 30.09 in 7.0 mi NE 15.0 mph - N/A   Scattered Clouds
5:55 AM 66.2 °F 64.4 °F 94% 30.09 in 7.0 mi NE 17.3 mph 20.7 mph N/A   Scattered Clouds
6:15 AM 66.2 °F 64.4 °F 94% 30.09 in 7.0 mi NE 17.3 mph 24.2 mph N/A   Scattered Clouds
6:35 AM 66.2 °F 64.4 °F 94% 30.10 in 7.0 mi NE 16.1 mph - N/A   Scattered Clouds
6:55 AM 66.2 °F 64.4 °F 94% 30.11 in 7.0 mi NE 13.8 mph - N/A   Mostly Cloudy
7:15 AM 66.2 °F 64.4 °F 94% 30.11 in 5.0 mi NE 18.4 mph 24.2 mph N/A   Overcast
7:35 AM 66.2 °F 64.4 °F 94% 30.11 in 5.0 mi ENE 13.8 mph - N/A   Overcast
7:55 AM 68.0 °F 64.4 °F 88% 30.12 in 5.0 mi ENE 17.3 mph 23.0 mph N/A   Overcast
8:15 AM 68.0 °F 64.4 °F 88% 30.13 in 5.0 mi NE 15.0 mph 23.0 mph N/A   Overcast
8:35 AM 68.0 °F 64.4 °F 88% 30.13 in 5.0 mi NE 18.4 mph 21.9 mph N/A   Overcast
8:55 AM 68.0 °F 64.4 °F 88% 30.13 in 5.0 mi NE 17.3 mph - N/A   Overcast
9:15 AM 68.0 °F 64.4 °F 88% 30.13 in 7.0 mi NE 12.7 mph 21.9 mph N/A   Overcast
9:35 AM 68.0 °F 64.4 °F 88% 30.13 in 4.0 mi ENE 13.8 mph 20.7 mph N/A   Overcast
9:55 AM 69.8 °F 64.4 °F 83% 30.13 in 4.0 mi ENE 13.8 mph 19.6 mph N/A   Overcast
10:15 AM 69.8 °F 64.4 °F 83% 30.14 in 5.0 mi ENE 16.1 mph 25.3 mph N/A   Haze
10:35 AM 69.8 °F 64.4 °F 83% 30.14 in 7.0 mi ENE 20.7 mph 29.9 mph N/A   Overcast
10:55 AM 69.8 °F 62.6 °F 78% 30.14 in 5.0 mi East 15.0 mph 27.6 mph N/A   Haze
11:15 AM 69.8 °F 64.4 °F 83% 30.14 in 5.0 mi ENE 16.1 mph 24.2 mph N/A   Overcast
11:35 AM 69.8 °F 64.4 °F 83% 30.14 in 5.0 mi East 15.0 mph 26.5 mph N/A   Haze
11:55 AM 69.8 °F 64.4 °F 83% 30.14 in 7.0 mi ENE 18.4 mph 25.3 mph N/A   Overcast
12:15 PM 71.6 °F 64.4 °F 78% 30.14 in 5.0 mi ENE 19.6 mph 25.3 mph N/A   Haze
12:35 PM 71.6 °F 64.4 °F 78% 30.14 in 5.0 mi ENE 18.4 mph 26.5 mph N/A   Haze
12:55 PM 71.6 °F 64.4 °F 78% 30.14 in 5.0 mi ENE 18.4 mph 26.5 mph N/A   Haze
1:15 PM 71.6 °F 64.4 °F 78% 30.13 in 5.0 mi ENE 15.0 mph 20.7 mph N/A   Haze
1:35 PM 71.6 °F 64.4 °F 78% 30.13 in 7.0 mi ENE 16.1 mph 24.2 mph N/A   Overcast
1:55 PM 71.6 °F 64.4 °F 78% 30.13 in 5.0 mi ENE 15.0 mph 23.0 mph N/A   Haze
2:15 PM 71.6 °F 64.4 °F 78% 30.12 in 7.0 mi ENE 17.3 mph 25.3 mph N/A   Overcast
2:35 PM 71.6 °F 64.4 °F 78% 30.11 in 5.0 mi NE 17.3 mph 24.2 mph N/A   Haze
2:55 PM 71.6 °F 64.4 °F 78% 30.11 in 7.0 mi NE 17.3 mph 23.0 mph N/A   Overcast
3:15 PM 68.0 °F 64.4 °F 88% 30.11 in 2.5 mi ENE 11.5 mph - N/A Rain Light Rain
3:35 PM 68.0 °F 66.2 °F 94% 30.11 in 2.0 mi East 15.0 mph 19.6 mph N/A Rain Heavy Rain
3:55 PM 68.0 °F 68.0 °F 100% 30.10 in 7.0 mi ENE 12.7 mph 19.6 mph N/A   Overcast
4:15 PM 69.8 °F 64.4 °F 83% 30.10 in 7.0 mi East 15.0 mph 20.7 mph N/A   Overcast
4:35 PM 69.8 °F 64.4 °F 83% 30.09 in 7.0 mi ENE 11.5 mph 16.1 mph N/A   Overcast
4:55 PM 69.8 °F 62.6 °F 78% 30.09 in 10.0 mi ENE 16.1 mph 24.2 mph N/A   Overcast
5:15 PM 69.8 °F 62.6 °F 78% 30.09 in 10.0 mi ENE 18.4 mph 25.3 mph N/A   Overcast
5:35 PM 69.8 °F 62.6 °F 78% 30.09 in 10.0 mi ENE 17.3 mph 25.3 mph N/A   Overcast
5:55 PM 69.8 °F 64.4 °F 83% 30.09 in 7.0 mi ENE 17.3 mph 24.2 mph N/A   Overcast
6:15 PM 69.8 °F 62.6 °F 78% 30.09 in 10.0 mi ENE 18.4 mph 25.3 mph N/A   Overcast
6:35 PM 69.8 °F 62.6 °F 78% 30.08 in 10.0 mi ENE 16.1 mph 26.5 mph N/A   Overcast
6:55 PM 69.8 °F 62.6 °F 78% 30.08 in 10.0 mi ENE 12.7 mph 24.2 mph N/A   Overcast
7:15 PM 68.0 °F 62.6 °F 83% 30.08 in 10.0 mi ENE 17.3 mph 32.2 mph N/A   Overcast
7:35 PM 68.0 °F 62.6 °F 83% 30.09 in 10.0 mi ENE 19.6 mph 27.6 mph N/A   Mostly Cloudy
7:55 PM 68.0 °F 62.6 °F 83% 30.09 in 10.0 mi ENE 19.6 mph 25.3 mph N/A   Scattered Clouds
8:15 PM 68.0 °F 62.6 °F 83% 30.09 in 10.0 mi ENE 13.8 mph 23.0 mph N/A   Clear
8:35 PM 68.0 °F 62.6 °F 83% 30.09 in 10.0 mi ENE 24.2 mph 29.9 mph N/A   Scattered Clouds
8:55 PM 66.2 °F 62.6 °F 88% 30.09 in 7.0 mi NE 17.3 mph 25.3 mph N/A   Scattered Clouds
9:15 PM 66.2 °F 62.6 °F 88% 30.09 in 7.0 mi NE 19.6 mph 25.3 mph N/A   Scattered Clouds
9:35 PM 66.2 °F 62.6 °F 88% 30.10 in 10.0 mi NE 16.1 mph 26.5 mph N/A   Scattered Clouds
9:55 PM 66.2 °F 62.6 °F 88% 30.11 in 10.0 mi NE 15.0 mph 23.0 mph N/A   Scattered Clouds
10:15 PM 66.2 °F 62.6 °F 88% 30.11 in 10.0 mi NE 16.1 mph 25.3 mph N/A   Mostly Cloudy
10:35 PM 64.4 °F 60.8 °F 88% 30.11 in 10.0 mi ENE 18.4 mph 25.3 mph N/A   Mostly Cloudy
10:55 PM 64.4 °F 60.8 °F 88% 30.11 in 10.0 mi ENE 16.1 mph 23.0 mph N/A   Overcast
11:15 PM 64.4 °F 60.8 °F 88% 30.10 in 10.0 mi NE 16.1 mph 26.5 mph N/A   Mostly Cloudy
11:35 PM 64.4 °F 60.8 °F 88% 30.10 in 10.0 mi NE 16.1 mph 28.8 mph N/A   Mostly Cloudy
11:55 PM 64.4 °F 60.8 °F 88% 30.09 in 7.0 mi NE 19.6 mph 25.3 mph N/A   Scattered Clouds